Location: Buchloe
(48.0161°N, 10.7316°E)
Time: 06:12:47
(UTC+02:00)

ISS - Visible Passes

Search period start: 24 October 2017 00:00
Search period end: 02 November 2017 23:00
Orbit: 400 x 408 km, 51.6° (Epoch: 24 October)

Date Brightness Start Highest point End Pass type
(mag) Time Alt. Az. Time Alt. Az. Time Alt. Az.
28 Oct -0.3 07:05:40 10° SE 07:06:21 10° SE 07:07:02 10° ESE visible
30 Oct -1.3 05:55:07 10° SSW 05:57:38 21° SE 06:00:11 10° E visible
31 Oct -0.9 05:03:56 10° SSE 05:05:26 13° SE 05:06:58 10° ESE visible
01 Nov -2.7 05:45:56 10° SW 05:49:01 41° SSE 05:52:07 10° ENE visible
02 Nov -2.0 04:56:01 23° SSE 04:56:42 25° SE 04:59:26 10° E visible
02 Nov -3.8 06:29:41 10° WSW 06:32:56 73° NNW 06:36:12 10° ENE visible
